RWD711 EGLL-HRYR

Flight info

Callsign RWD711
Flight time N/A
Altitude 35000
Route MODMI M185 MID UL612 VEULE DCT DEKOD UN857 DISAK DCT DIRMO DCT ETAMO DCT ADEKA DCT MOKDI DCT MEN DCT BADAM DCT FJR DCT OBLAD DCT KAMER/N0472F370 UM998 CSO UM2 DJA UB730 IKTAV/N0469F390 UB730 DIR UG862 SOPOG UT139 ASKON DCT ATUGA/N0473F400 DCT OKTEX/N0455F240 L432 ALSAR ALSAR1B
Aircraft A333/H-SDE3GHIJ2J3J5M1RVWXY/LB2D1

Departure

Time 2026-05-05 06:12
Airport London Heathrow Airport (EGLL)

Arrival

Time N/A
Airport Kigali International Airport (HRYR)
Time Latitude Longitude Altitude Speed Heading
2026-05-05 05:35 51.46252 -0.44360 88 ft 0 kts 291°
2026-05-05 05:58 51.46247 -0.44341 88 ft 2 kts 304°
2026-05-05 05:58 51.46238 -0.44322 88 ft 2 kts 317°
2026-05-05 05:58 51.46226 -0.44307 88 ft 2 kts 330°
2026-05-05 05:59 51.46213 -0.44297 88 ft 2 kts 343°
2026-05-05 05:59 51.46198 -0.44291 88 ft 2 kts 355°
2026-05-05 05:59 51.46183 -0.44291 88 ft 2 kts
2026-05-05 05:59 51.46169 -0.44296 87 ft 2 kts 21°
2026-05-05 06:00 51.46155 -0.44306 87 ft 2 kts 26°
2026-05-05 06:00 51.46143 -0.44315 87 ft 0 kts 24°
2026-05-05 06:00 51.46142 -0.44316 87 ft 0 kts 24°
2026-05-05 06:03 51.46142 -0.44315 87 ft 0 kts 24°
2026-05-05 06:04 51.46144 -0.44314 87 ft 1 kts 24°
2026-05-05 06:04 51.46172 -0.44295 87 ft 6 kts 23°
2026-05-05 06:04 51.46226 -0.44258 88 ft 10 kts 24°
2026-05-05 06:04 51.46308 -0.44235 88 ft 13 kts 322°
2026-05-05 06:05 51.46326 -0.44407 88 ft 17 kts 271°
2026-05-05 06:05 51.46329 -0.44609 88 ft 17 kts 266°
2026-05-05 06:05 51.46325 -0.44800 88 ft 16 kts 269°
2026-05-05 06:05 51.46324 -0.44982 88 ft 16 kts 270°
2026-05-05 06:06 51.46322 -0.45155 88 ft 15 kts 270°
2026-05-05 06:06 51.46321 -0.45320 88 ft 14 kts 270°
2026-05-05 06:06 51.46321 -0.45473 88 ft 13 kts 270°
2026-05-05 06:06 51.46321 -0.45615 88 ft 12 kts 273°
2026-05-05 06:07 51.46326 -0.45773 88 ft 15 kts 273°
2026-05-05 06:07 51.46333 -0.45965 88 ft 18 kts 274°
2026-05-05 06:07 51.46322 -0.46162 88 ft 19 kts 268°
2026-05-05 06:07 51.46320 -0.46389 88 ft 21 kts 270°
2026-05-05 06:08 51.46321 -0.46647 88 ft 23 kts 271°
2026-05-05 06:08 51.46321 -0.46904 88 ft 22 kts 270°
2026-05-05 06:08 51.46320 -0.47152 88 ft 21 kts 269°
2026-05-05 06:08 51.46330 -0.47383 88 ft 20 kts 285°
2026-05-05 06:09 51.46336 -0.47598 88 ft 19 kts 264°
2026-05-05 06:09 51.46283 -0.47785 88 ft 18 kts 239°
2026-05-05 06:09 51.46249 -0.47969 88 ft 17 kts 270°
2026-05-05 06:09 51.46249 -0.48155 88 ft 16 kts 270°
2026-05-05 06:10 51.46248 -0.48334 87 ft 15 kts 270°
2026-05-05 06:10 51.46248 -0.48504 87 ft 15 kts 270°
2026-05-05 06:10 51.46271 -0.48661 87 ft 14 kts 301°
2026-05-05 06:10 51.46346 -0.48747 87 ft 13 kts 345°
2026-05-05 06:11 51.46431 -0.48757 88 ft 10 kts
2026-05-05 06:11 51.46479 -0.48699 88 ft 9 kts 84°
2026-05-05 06:11 51.46479 -0.48538 88 ft 32 kts 90°
2026-05-05 06:11 51.46482 -0.47849 88 ft 90 kts 90°
2026-05-05 06:12 51.46488 -0.46568 89 ft 140 kts 90°
2026-05-05 06:12 51.46486 -0.44790 217 ft 168 kts 90°
2026-05-05 06:12 51.46468 -0.42940 728 ft 168 kts 90°
2026-05-05 06:12 51.46327 -0.41084 1260 ft 174 kts 111°
2026-05-05 06:13 51.45628 -0.39481 1813 ft 177 kts 124°
2026-05-05 06:13 51.44828 -0.37995 2270 ft 181 kts 142°
2026-05-05 06:13 51.43615 -0.37173 2454 ft 196 kts 161°
2026-05-05 06:13 51.42262 -0.36525 2663 ft 209 kts 161°
2026-05-05 06:14 51.40813 -0.35865 2812 ft 226 kts 168°
2026-05-05 06:14 51.39178 -0.36096 3002 ft 248 kts 203°
2026-05-05 06:14 51.37608 -0.37362 3367 ft 263 kts 208°
2026-05-05 06:14 51.35919 -0.38700 3815 ft 275 kts 207°
2026-05-05 06:15 51.34194 -0.40056 4504 ft 278 kts 207°
2026-05-05 06:15 51.32479 -0.41400 5217 ft 279 kts 207°
2026-05-05 06:15 51.30750 -0.42755 5889 ft 282 kts 207°
2026-05-05 06:15 51.28952 -0.44164 5951 ft 288 kts 207°
2026-05-05 06:16 51.27179 -0.45559 5934 ft 281 kts 208°
2026-05-05 06:16 51.25442 -0.46948 5985 ft 283 kts 208°
2026-05-05 06:16 51.23676 -0.48358 5941 ft 281 kts 208°
2026-05-05 06:16 51.21891 -0.49750 6322 ft 290 kts 207°
2026-05-05 06:17 51.20100 -0.51138 6628 ft 287 kts 207°
2026-05-05 06:17 51.18315 -0.52508 6485 ft 282 kts 204°
2026-05-05 06:17 51.16397 -0.53275 6697 ft 291 kts 184°
2026-05-05 06:17 51.14430 -0.52909 7485 ft 286 kts 164°
2026-05-05 06:18 51.12567 -0.51896 8210 ft 285 kts 159°
2026-05-05 06:18 51.10708 -0.50749 8818 ft 289 kts 158°
2026-05-05 06:18 51.08821 -0.49556 9497 ft 290 kts 158°
2026-05-05 06:18 51.06966 -0.48376 10156 ft 291 kts 158°
2026-05-05 06:19 51.05054 -0.47159 10504 ft 305 kts 158°
2026-05-05 06:19 51.03017 -0.45865 10740 ft 322 kts 158°
2026-05-05 06:19 51.00885 -0.44510 10949 ft 340 kts 158°
2026-05-05 06:19 50.98623 -0.43075 11126 ft 359 kts 158°
2026-05-05 06:20 50.96268 -0.41583 11535 ft 369 kts 158°
2026-05-05 06:20 50.93904 -0.40086 12248 ft 369 kts 158°
2026-05-05 06:20 50.91514 -0.38575 12851 ft 372 kts 158°
2026-05-05 06:20 50.89108 -0.37055 13402 ft 376 kts 158°
2026-05-05 06:21 50.86666 -0.35514 14031 ft 377 kts 158°
2026-05-05 06:21 50.84245 -0.33987 14635 ft 379 kts 158°
2026-05-05 06:21 50.81766 -0.32425 15186 ft 382 kts 158°
2026-05-05 06:21 50.79306 -0.30878 15774 ft 384 kts 158°
2026-05-05 06:22 50.76796 -0.29300 16322 ft 386 kts 158°
2026-05-05 06:22 50.74296 -0.27732 16818 ft 389 kts 158°
2026-05-05 06:22 50.71786 -0.26158 17352 ft 391 kts 158°
2026-05-05 06:22 50.69313 -0.24380 17827 ft 393 kts 148°
2026-05-05 06:23 50.67056 -0.21959 18295 ft 395 kts 144°
2026-05-05 06:23 50.64774 -0.19510 18856 ft 395 kts 145°
2026-05-05 06:23 50.62485 -0.17089 19327 ft 398 kts 146°
2026-05-05 06:23 50.60174 -0.14661 19758 ft 401 kts 146°
2026-05-05 06:24 50.57854 -0.12234 20250 ft 403 kts 146°
2026-05-05 06:24 50.55596 -0.09875 20663 ft 405 kts 146°
2026-05-05 06:25 50.54830 -0.09076 20798 ft 406 kts 146°
2026-05-05 06:25 50.53348 -0.07532 21077 ft 407 kts 146°
2026-05-05 06:26 50.50982 -0.05068 21485 ft 409 kts 146°
2026-05-05 06:26 50.48611 -0.02601 21906 ft 411 kts 146°
2026-05-05 06:26 50.46234 -0.00131 22293 ft 414 kts 146°
2026-05-05 06:26 50.43844 0.02349 22698 ft 416 kts 146°
2026-05-05 06:27 50.41410 0.04870 23131 ft 417 kts 146°
2026-05-05 06:27 50.36588 0.09858 23857 ft 421 kts 146°
2026-05-05 06:27 50.34127 0.12400 24212 ft 424 kts 147°
2026-05-05 06:28 50.31679 0.14923 24590 ft 425 kts 147°
2026-05-05 06:28 50.29223 0.17454 24942 ft 428 kts 147°
2026-05-05 06:28 50.26743 0.20003 25337 ft 429 kts 147°
2026-05-05 06:28 50.24234 0.22580 25641 ft 432 kts 147°
2026-05-05 06:29 50.21739 0.25139 26036 ft 433 kts 147°
2026-05-05 06:29 50.19197 0.27751 26379 ft 435 kts 147°
2026-05-05 06:29 50.16675 0.30348 26698 ft 438 kts 147°
2026-05-05 06:29 50.14153 0.32939 27033 ft 440 kts 147°
2026-05-05 06:30 50.11587 0.35575 27414 ft 441 kts 147°
2026-05-05 06:30 50.09024 0.38202 27731 ft 443 kts 147°
2026-05-05 06:30 50.06451 0.40838 28008 ft 446 kts 147°
2026-05-05 06:30 50.03882 0.43463 28358 ft 447 kts 147°
2026-05-05 06:31 50.01259 0.46142 28639 ft 449 kts 147°
2026-05-05 06:31 49.98652 0.48801 28939 ft 451 kts 147°
2026-05-05 06:31 49.96043 0.51458 29116 ft 454 kts 147°
2026-05-05 06:31 49.93386 0.54159 29394 ft 455 kts 147°
2026-05-05 06:32 49.90774 0.56815 29825 ft 453 kts 148°
2026-05-05 06:32 49.88137 0.59489 30237 ft 452 kts 148°
2026-05-05 06:32 49.85509 0.62147 30535 ft 452 kts 148°
2026-05-05 06:32 49.82819 0.64774 30895 ft 451 kts 148°
2026-05-05 06:33 49.80164 0.67360 31252 ft 449 kts 149°
2026-05-05 06:33 49.77534 0.69922 31509 ft 449 kts 149°
2026-05-05 06:33 49.74856 0.72527 31801 ft 448 kts 149°
2026-05-05 06:33 49.72221 0.75086 32126 ft 446 kts 149°
2026-05-05 06:34 49.69604 0.77624 32449 ft 444 kts 149°
2026-05-05 06:34 49.67001 0.80146 32693 ft 443 kts 149°
2026-05-05 06:34 49.64403 0.82659 32906 ft 443 kts 149°
2026-05-05 06:34 49.61801 0.85173 33196 ft 441 kts 150°
2026-05-05 06:35 49.59207 0.87677 33486 ft 439 kts 150°
2026-05-05 06:35 49.56629 0.90159 33697 ft 439 kts 150°
2026-05-05 06:35 49.54049 0.92643 33942 ft 437 kts 150°
2026-05-05 06:35 49.51501 0.95092 34167 ft 436 kts 150°
2026-05-05 06:36 49.48911 0.97578 34319 ft 437 kts 150°
2026-05-05 06:36 49.46368 1.00018 34552 ft 435 kts 150°
2026-05-05 06:36 49.43804 1.02474 34798 ft 432 kts 150°
2026-05-05 06:37 49.38715 1.07338 34838 ft 434 kts 150°
2026-05-05 06:37 49.33566 1.12246 34881 ft 441 kts 150°
2026-05-05 06:38 49.28379 1.17180 34910 ft 439 kts 150°
2026-05-05 06:38 49.23228 1.22069 34879 ft 437 kts 150°
2026-05-05 06:39 49.18055 1.26964 34847 ft 437 kts 150°
2026-05-05 06:39 49.12928 1.31804 34885 ft 436 kts 150°
2026-05-05 06:40 49.07793 1.36642 34856 ft 434 kts 150°
2026-05-05 06:40 49.02644 1.41478 34840 ft 436 kts 150°
2026-05-05 06:41 48.97505 1.46294 34855 ft 434 kts 150°
2026-05-05 06:41 48.92357 1.51107 34849 ft 434 kts 150°
2026-05-05 06:42 48.87220 1.55896 34833 ft 434 kts 150°
2026-05-05 06:42 48.82111 1.60649 34846 ft 433 kts 150°
2026-05-05 06:43 48.76976 1.65414 34844 ft 432 kts 151°
2026-05-05 06:43 48.71836 1.70172 34823 ft 432 kts 151°
2026-05-05 06:44 48.66726 1.74893 34849 ft 431 kts 151°
2026-05-05 06:44 48.61591 1.79624 34826 ft 430 kts 151°
2026-05-05 06:45 48.56487 1.84316 34829 ft 431 kts 151°
2026-05-05 06:45 48.51369 1.89009 34845 ft 430 kts 151°
2026-05-05 06:46 48.46260 1.93682 34813 ft 429 kts 151°
2026-05-05 06:46 48.41175 1.98321 34828 ft 430 kts 151°
2026-05-05 06:47 48.36039 2.02997 34827 ft 428 kts 151°
2026-05-05 06:47 48.30937 2.07630 34814 ft 429 kts 151°
2026-05-05 06:48 48.25436 2.10798 34832 ft 424 kts 172°
2026-05-05 06:48 48.19575 2.11876 34793 ft 425 kts 172°
2026-05-05 06:49 48.13737 2.13080 34815 ft 425 kts 172°
2026-05-05 06:49 48.07876 2.13503 34815 ft 424 kts 177°
2026-05-05 06:50 48.01942 2.13840 34802 ft 424 kts 177°
2026-05-05 06:50 47.96080 2.14182 34826 ft 425 kts 177°
2026-05-05 06:51 47.90150 2.14531 34826 ft 426 kts 177°
2026-05-05 06:51 47.84238 2.14877 34806 ft 427 kts 177°
2026-05-05 06:52 47.78318 2.15223 34850 ft 427 kts 177°
2026-05-05 06:52 47.72390 2.15569 34825 ft 426 kts 177°
2026-05-05 06:53 47.66465 2.15913 34805 ft 428 kts 177°
2026-05-05 06:53 47.60504 2.16259 34839 ft 429 kts 176°
2026-05-05 06:54 47.54547 2.16605 34818 ft 429 kts 177°
2026-05-05 06:54 47.48607 2.16947 34800 ft 429 kts 177°
2026-05-05 06:55 47.42641 2.17292 34828 ft 430 kts 177°
2026-05-05 06:55 47.36686 2.17634 34815 ft 431 kts 177°
2026-05-05 06:56 47.30713 2.17976 34808 ft 430 kts 177°
2026-05-05 06:56 47.24766 2.18317 34821 ft 429 kts 177°
2026-05-05 06:57 47.18780 2.18659 34798 ft 431 kts 176°
2026-05-05 06:57 47.12782 2.19001 34826 ft 432 kts 176°
2026-05-05 06:58 47.06876 2.20217 34807 ft 432 kts 160°
2026-05-05 06:58 47.01450 2.23554 34797 ft 434 kts 158°
2026-05-05 06:59 46.95864 2.26849 34825 ft 432 kts 159°
2026-05-05 06:59 46.90264 2.30117 34814 ft 433 kts 159°
2026-05-05 07:00 46.84658 2.33390 34832 ft 434 kts 157°
2026-05-05 07:00 46.79494 2.38031 34845 ft 435 kts 147°
2026-05-05 07:01 46.74412 2.42913 34795 ft 435 kts 148°
2026-05-05 07:01 46.69365 2.47719 34839 ft 436 kts 148°
2026-05-05 07:02 46.64261 2.52564 34865 ft 436 kts 148°
2026-05-05 07:02 46.59150 2.57403 34846 ft 436 kts 148°
2026-05-05 07:03 46.54026 2.62245 34842 ft 437 kts 148°
2026-05-05 07:03 46.48929 2.67049 34852 ft 437 kts 149°
2026-05-05 07:04 46.43799 2.71874 34858 ft 438 kts 149°
2026-05-05 07:04 46.38702 2.76656 34856 ft 438 kts 149°
2026-05-05 07:05 46.33562 2.81469 34843 ft 439 kts 149°
2026-05-05 07:05 46.28428 2.86265 34856 ft 439 kts 149°
2026-05-05 07:06 46.23299 2.91045 34854 ft 440 kts 149°
2026-05-05 07:06 46.18157 2.95827 34852 ft 439 kts 149°
2026-05-05 07:07 46.13046 3.00568 34793 ft 439 kts 149°
2026-05-05 07:07 46.07865 3.05362 34848 ft 445 kts 149°
2026-05-05 07:08 46.02708 3.10127 34856 ft 441 kts 149°
2026-05-05 07:08 45.97523 3.14905 34846 ft 442 kts 149°
2026-05-05 07:08 45.94816 3.16939 34845 ft 439 kts 160°
2026-05-05 07:09 45.91890 3.18036 34973 ft 439 kts 172°
2026-05-05 07:09 45.88863 3.18185 34820 ft 440 kts 183°
2026-05-05 07:09 45.85835 3.17974 34907 ft 435 kts 181°
2026-05-05 07:10 45.79724 3.17824 34847 ft 436 kts 181°
2026-05-05 07:10 45.73654 3.17733 34851 ft 438 kts 181°
2026-05-05 07:11 45.67593 3.17649 34893 ft 438 kts 181°
2026-05-05 07:11 45.61533 3.17569 34910 ft 436 kts 181°
2026-05-05 07:12 45.55444 3.17488 34857 ft 437 kts 181°
2026-05-05 07:12 45.49404 3.17407 34862 ft 438 kts 181°
2026-05-05 07:13 45.43292 3.17325 34902 ft 438 kts 181°
2026-05-05 07:13 45.37206 3.17244 34893 ft 437 kts 181°
2026-05-05 07:14 45.31077 3.17163 34876 ft 438 kts 181°
2026-05-05 07:14 45.24983 3.17083 34902 ft 437 kts 182°
2026-05-05 07:15 45.18866 3.17002 34895 ft 438 kts 182°
2026-05-05 07:15 45.12777 3.16921 34875 ft 438 kts 182°
2026-05-05 07:16 45.06662 3.16841 34902 ft 439 kts 182°
2026-05-05 07:16 45.00493 3.16759 34879 ft 439 kts 182°
2026-05-05 07:17 44.94332 3.16678 34892 ft 440 kts 182°
2026-05-05 07:17 44.88194 3.16598 34891 ft 439 kts 182°
2026-05-05 07:18 44.82148 3.16521 34891 ft 438 kts 182°
2026-05-05 07:18 44.79096 3.16481 34788 ft 435 kts 183°
2026-05-05 07:18 44.76060 3.16441 34937 ft 434 kts 183°
2026-05-05 07:19 44.69990 3.16359 34880 ft 440 kts 183°
2026-05-05 07:19 44.63959 3.16283 34968 ft 434 kts 183°
2026-05-05 07:20 44.57881 3.16284 34920 ft 436 kts 182°
2026-05-05 07:20 44.51768 3.16382 34897 ft 438 kts 182°
2026-05-05 07:21 44.45667 3.16480 34938 ft 437 kts 182°
2026-05-05 07:21 44.39579 3.16574 34930 ft 434 kts 182°
2026-05-05 07:22 44.33519 3.16670 34915 ft 436 kts 182°
2026-05-05 07:22 44.27448 3.16764 34922 ft 435 kts 182°
2026-05-05 07:23 44.21417 3.16858 34920 ft 433 kts 183°
2026-05-05 07:23 44.15380 3.16951 34898 ft 434 kts 183°
2026-05-05 07:24 44.09397 3.18165 34928 ft 447 kts 164°
2026-05-05 07:24 44.06599 3.20131 34934 ft 458 kts 152°
2026-05-05 07:24 44.04125 3.22956 34938 ft 469 kts 140°
2026-05-05 07:24 44.02085 3.26550 34928 ft 479 kts 128°
2026-05-05 07:25 44.00214 3.30330 34938 ft 475 kts 134°
2026-05-05 07:25 43.95938 3.37339 34916 ft 472 kts 137°
2026-05-05 07:26 43.91624 3.44227 34940 ft 472 kts 137°
2026-05-05 07:26 43.87318 3.51067 34927 ft 474 kts 137°